Regional Weather Roundup
Issued by NWS

Home | Current Version | Previous Version | Text Only | Print | Product List | Glossary Off
Versions: 1 2 3 4 5 6 7 8 9 10 11 12 13 14 15 16 17 18 19 20 21 22 23 24 25 26 27 28 29 30 31 32 33 34 35 36 37 38 39 40 41 42 43 44 45 46 47 48 49 50

000
ASUS43 KMKX 050821
RWRWI

WISCONSIN REGIONAL WEATHER ROUNDUP
NATIONAL WEATHER SERVICE MILWAUKEE/SULLIVAN WI
300 AM CDT SUN JUL 05 2015

NOTE: "FAIR" INDICATES FEW OR NO CLOUDS BELOW 12,000 FEET WITH NO
SIGNIFICANT WEATHER AND/OR OBSTRUCTIONS TO VISIBILITY.

WIZ001-002-006>008-014>016-023>028-050900-
NORTHWEST WISCONSIN

CITY           SKY/WX    TMP DP  RH WIND       PRES   REMARKS
SUPERIOR ARPT  PTCLDY    55  55  97 CALM      29.92R
ASHLAND        CLEAR     55  55 100 CALM      29.92S FOG
HAYWARD        MOCLDY    67  63  87 S5        29.94S FOG
SIREN          CLEAR     68  62  80 S6        29.93R
CUMBERLAND     CLEAR     63  61  94 S7        29.95S FOG
RICE LAKE      CLEAR     65  62  90 CALM      29.96S FOG
CHETEK         CLEAR     65  63  93 SE3       29.95S
LADYSMITH      CLEAR     66  64  93 S5        29.98F FOG
EAU CLAIRE     CLEAR     67  62  84 S8        29.95F
MENOMONIE      CLEAR     64  61  90 SE3       29.96S
NEW RICHMOND   CLEAR     65  58  79 S8        29.94S
OSCEOLA        CLEAR     65  64  96 SE3       29.96R
$$

WIZ003>005-009-010-017-018-050900-
NORTH CENTRAL WISCONSIN

CITY           SKY/WX    TMP DP  RH WIND       PRES   REMARKS
MANITOWISH WTR CLEAR     61  61 100 CALM      29.98S FOG
ARBOR VITAE    CLEAR     62  60  94 CALM      29.99F FOG
WOODRUFF       CLEAR     62  60  94 CALM      29.99F FOG
RHINELANDER    PTCLDY    62  59  90 S3        30.01F FOG
EAGLE RIVER    CLEAR     63  63 100 S5        29.99F FOG
LAND O LAKES   PTCLDY    63  63  99 CALM      30.01S FOG
PHILLIPS       CLEAR     64  63  94 SW6       29.97F
TOMAHAWK         N/A     59  58  97 CALM      30.00F FOG
MEDFORD        CLEAR     63  62  96 S6        30.00F FOG
MERRILL          N/A     57  57 100 CALM      30.01F FOG
$$

WIZ029-030-035-036-043>047-050900-
CENTRAL WISCONSIN

CITY           SKY/WX    TMP DP  RH WIND       PRES   REMARKS
WAUSAU         CLEAR     64  62  93 CALM      30.00F FOG
MOSINEE        CLEAR     63  63 100 S7        30.02F
MARSHFIELD     PTCLDY    63  60  90 S6        30.01F FOG
STEVENS POINT  CLEAR     62  60  93 CALM      30.02F
WAUPACA        CLEAR     62  62  97 CALM      30.02F FOG
WAUTOMA        CLEAR     60  60 100 CALM      30.04S FOG
WISC RAPIDS    CLEAR     64  60  87 S3        30.02F
CAMP DOUGLAS   CLEAR     57  57 100 S3        30.01F FOG
$$

WIZ011>013-019>022-031-037>040-048>050-050900-
NORTHEAST WISCONSIN

CITY           SKY/WX    TMP DP  RH WIND       PRES   REMARKS
ANTIGO         CLEAR     61  60  99 S5        30.03F FOG
SHAWANO        CLOUDY    68  64  86 CALM      30.01F
OCONTO         CLEAR     59  59 100 CALM      30.02R
STURGEON BAY   CLEAR     59  55  88 S8        30.05S
GREEN BAY      CLEAR     63  60  90 S5        30.03R FOG
MANITOWOC      CLEAR     58  57  97 MISG      30.05R FOG
APPLETON       CLEAR     64  59  82 SW5       30.04S
CLINTONVILLE   PTCLDY    63  61  94 SE3       30.01F FOG
OSHKOSH        CLEAR     66  61  84 SW6       30.03S
$$

WIZ032>034-041-042-053>061-050900-
SOUTHWEST WISCONSIN

CITY           SKY/WX    TMP DP  RH WIND       PRES   REMARKS
LA CROSSE      CLEAR     68  65  90 S7        29.99F
SPARTA           N/A     57  56  95 CALM      30.01F FOG
VIROQUA        CLEAR     65  60  82 S7        30.03F
BOSCOBEL       FOG       58  57  97 CALM      30.02F VSB 3/4
PRAIRIE DU CHI CLEAR     61  59  91 CALM      30.02S
PLATTEVILLE    CLEAR     63  61  94 S3        30.04S
$$

WIZ056-057-062-063-064-067-068-050900-
SOUTH CENTRAL WISCONSIN

CITY           SKY/WX    TMP DP  RH WIND       PRES   REMARKS
REEDSBURG      CLEAR     61  59  94 CALM      30.03F
BARABOO/DELLS  CLEAR     60  56  87 S3        30.04S
LONE ROCK      CLEAR     60  57  89 CALM      30.04S
MINERAL POINT  CLEAR     63  61  94 S3        30.05S
MADISON        CLEAR     65  59  81 CALM      30.04S
MIDDLETON      CLEAR     64  61  91 S3        30.05S
WATERTOWN      CLEAR     61  61 100 CALM      30.05S
MONROE         CLEAR     64  59  82 S6        30.05S
JANESVILLE     CLEAR     63  61  94 CALM      30.05S FOG
$$

WIZ051-052-058>065-066-070>072-050900-
SOUTHEAST WISCONSIN

CITY           SKY/WX    TMP DP  RH WIND       PRES   REMARKS
MILWAUKEE      PTCLDY    66  55  67 CALM      30.05R
WAUKESHA       CLEAR     61  57  88 CALM      30.08R
MILWAUKEE/TIMM CLEAR     63  54  72 CALM      30.06S
RACINE         CLEAR     63  55  75 CALM      30.07R HAZE
BURLINGTON     FOG       56  55  98 CALM      30.06R VSB 1/4
KENOSHA        CLEAR     58  54  86 CALM      30.06R
FOND DU LAC    CLEAR     63  61  93 S5        30.04R
SHEBOYGAN      CLEAR     60  57  89 CALM      30.04S
WEST BEND      CLEAR     61  59  94 CALM      30.06R FOG
JUNEAU         CLEAR     63  60  93 SE3       30.06S
$$

LSZ147-162-050900-
LAKE SUPERIOR

STATION/POSITION TIME  TEMP    WIND        PRES    WAVE
                       AIR SEA DIR/SP/G            HT/PER
                 (UTC) (F)     (DEG/KT/KT) (MB)    (FT/S)
W MID LAKE BUOY  0750   46 39  160/  8/  8 1012.7F   0
DEVILS ISLAND    0800   57     360/  1/  1 1013.0S
SAXON HARBOR     0700   60     210/  4/  5 1012.5
$$

LMZ867-665-643>646-050900-
LAKE MICHIGAN

STATION/POSITION TIME  TEMP    WIND        PRES    WAVE
                       AIR SEA DIR/SP/G            HT/PER
                 (UTC) (F)     (DEG/KT/KT) (MB)    (FT/S)
CHAMBERS ISLAND  0700   64     150/  3/  6 1016.3F
S GREEN BAY BUOY 0800   67 69  180/ 10/ 14 1017.8
N MID LAKE BUOY  0750   51 46  180/  6/  6 1017.3F   0
NORTHPORT PIER   0700   63     170/  4/  9 1016.6F
SISTER BAY       0714   61     170/ 10/ 12   N/A
ALGOMA LAKESHORE 0711          180/  3/  5   N/A
KEWAUNEE LAKESHO 0700   61     170/  5/  7 1016.3S
SHEBOYGAN LAKESH 0800   63     170/  2/  3 1017.4S
PORT WASHINGTON  0700   63      CALM  /  2 1017.9R
ATWATER BUOY     0800   64 60  170/  4/  6 1019.0R
MILWAUKEE LAKESH 0800   68     210/  5/  5   N/A
KENOSHA   LAKESH 0700   68     220/  3/  5 1017.3R
$$

TC  - TEMPERATURE IN CELSIUS
VSB - VISIBILITY IN STATUTE MILES
WCI - WIND CHILL INDEX
HX  - HEAT INDEX




USA.gov is the U.S. government's official web portal to all federal, state and local government web resources and services.